ONEWEB-0716 (55177 NORAD) Tracking and Keplerian Element Data

This shows tracking and keplerian element data for the satellite.

Feedback or suggestion? Click here.




ElementValue
Catalog55177
NameONEWEB-0716
Epoch Orbit130
Epoch Day13.91667824
Epoch Year2023
RAAN284.1436
Inclination86.5123
Eccentricity0.001177
Argument of Perigee202.7593
Mean Anonmoly67.5998
Mean Motion14.91322682
Decay Rate-0.00048054
L11 55177U 23004AP 23013.91667824 -.00048054 00000+0 -48598-2 0 9994
L22 55177 86.5123 284.1436 0011770 202.7593 67.5998 14.91322682 1300



Live tracking and technical data element details for ONEWEB-0716 (NORAD 55177). ONEWEB-0716 can be tracked NOW for your location showing map with azimuth and elevation plus other details from your city location.







IsCatalogInMostPopularTable: catalog: 55177, numindb: 6
Update: records affected: 1



GetName: 55177 ONEWEB-0716

Hit Count: updated at: Tue, 07 Feb 2023 15:13:57 GMT